| time (UTC) | temp F | wind direction | speed MPH | gust MPH | rain 1hr in | rain 24hr in | rain mn in | humidity % | barometer mb |
| 20260506013921 | 66 | 215 | 3.0 | 3.0 | 0.00 | 0.01 | 0.01 | 31 | 1014.7 |
| 20260506013420 | 67 | 184 | 2.0 | 2.0 | 0.00 | 0.01 | 0.01 | 30 | 1014.6 |
| 20260506012916 | 67 | 238 | 2.0 | 2.0 | 0.00 | 0.01 | 0.01 | 29 | 1014.6 |
| 20260506012412 | 67 | 203 | 3.0 | 3.0 | 0.00 | 0.01 | 0.01 | 29 | 1014.5 |
| 20260506011910 | 68 | 250 | 2.0 | 2.0 | 0.00 | 0.01 | 0.01 | 28 | 1014.6 |
| 20260506011407 | 68 | 196 | 2.0 | 2.0 | 0.00 | 0.01 | 0.01 | 28 | 1014.3 |
| 20260506010903 | 68 | 184 | 3.0 | 3.0 | 0.00 | 0.01 | 0.01 | 28 | 1014.5 |
| 20260506010402 | 69 | 197 | 3.0 | 3.0 | 0.00 | 0.01 | 0.01 | 28 | 1014.5 |
| 20260506005858 | 69 | 225 | 2.0 | 2.0 | 0.00 | 0.01 | 0.01 | 28 | 1014.3 |
| 20260506005355 | 69 | 217 | 2.0 | 3.0 | 0.00 | 0.01 | 0.01 | 28 | 1014.1 |
| 20260506004850 | 69 | 240 | 3.0 | 3.0 | 0.00 | 0.01 | 0.01 | 29 | 1014.1 |
| 20260506004349 | 70 | 253 | 3.0 | 5.0 | 0.00 | 0.01 | 0.01 | 29 | 1013.9 |
| 20260506003845 | 69 | 221 | 3.0 | 3.0 | 0.00 | 0.01 | 0.01 | 28 | 1013.8 |
| 20260506003341 | 69 | 228 | 3.0 | 5.0 | 0.00 | 0.01 | 0.01 | 29 | 1013.7 |
| 20260506002838 | 70 | 197 | 3.0 | 3.0 | 0.00 | 0.01 | 0.01 | 28 | 1014.0 |
| 20260506002334 | 70 | 223 | 3.0 | 5.0 | 0.00 | 0.01 | 0.01 | 28 | 1014.1 |
| 20260506001830 | 70 | 217 | 3.0 | 3.0 | 0.00 | 0.01 | 0.01 | 27 | 1013.9 |
| 20260506001327 | 70 | 193 | 3.0 | 3.0 | 0.00 | 0.01 | 0.01 | 26 | 1013.8 |
| 20260506000824 | 71 | 194 | 4.0 | 5.0 | 0.00 | 0.01 | 0.01 | 26 | 1013.9 |
| 20260506000323 | 71 | 204 | 5.0 | 8.0 | 0.00 | 0.01 | 0.01 | 26 | 1013.9 |
| 20260505235818 | 71 | 203 | 3.0 | 5.0 | 0.00 | 0.01 | 0.01 | 26 | 1013.6 |
| 20260505235316 | 71 | 205 | 4.0 | 5.0 | 0.00 | 0.01 | 0.01 | 26 | 1013.7 |
| 20260505234813 | 71 | 211 | 2.0 | 3.0 | 0.00 | 0.01 | 0.01 | 27 | 1013.7 |
| 20260505234311 | 71 | 220 | 3.0 | 5.0 | 0.00 | 0.01 | 0.01 | 26 | 1013.4 |
| 20260505233807 | 71 | 211 | 3.0 | 3.0 | 0.00 | 0.01 | 0.01 | 26 | 1013.8 |
| 20260505233305 | 72 | 225 | 4.0 | 5.0 | 0.00 | 0.01 | 0.01 | 26 | 1013.7 |
| 20260505232802 | 72 | 205 | 5.0 | 6.0 | 0.00 | 0.01 | 0.01 | 25 | 1013.7 |
| 20260505232300 | 71 | 191 | 4.0 | 5.0 | 0.00 | 0.01 | 0.01 | 25 | 1013.8 |
| 20260505231756 | 72 | 221 | 3.0 | 5.0 | 0.00 | 0.01 | 0.01 | 25 | 1013.6 |
| 20260505231255 | 72 | 217 | 4.0 | 5.0 | 0.00 | 0.01 | 0.01 | 24 | 1013.8 |
| 20260505230752 | 72 | 221 | 4.0 | 5.0 | 0.00 | 0.01 | 0.01 | 24 | 1013.6 |
| 20260505230249 | 72 | 252 | 5.0 | 6.0 | 0.00 | 0.01 | 0.01 | 24 | 1013.4 |
| 20260505225746 | 72 | 215 | 4.0 | 6.0 | 0.00 | 0.01 | 0.01 | 24 | 1013.6 |
| 20260505225243 | 72 | 219 | 4.0 | 5.0 | 0.00 | 0.01 | 0.01 | 24 | 1013.7 |
| 20260505224738 | 72 | 211 | 4.0 | 5.0 | 0.00 | 0.01 | 0.01 | 25 | 1013.4 |
| 20260505224236 | 72 | 203 | 5.0 | 7.0 | 0.00 | 0.01 | 0.01 | 24 | 1013.7 |
| 20260505223733 | 73 | 191 | 5.0 | 5.0 | 0.00 | 0.01 | 0.01 | 25 | 1013.7 |
| 20260505223229 | 72 | 194 | 3.0 | 3.0 | 0.00 | 0.01 | 0.01 | 25 | 1013.8 |
| 20260505222725 | 72 | 191 | 5.0 | 6.0 | 0.00 | 0.01 | 0.01 | 25 | 1013.8 |
| 20260505222221 | 72 | 226 | 4.0 | 5.0 | 0.00 | 0.01 | 0.01 | 26 | 1013.9 |
| 20260505221719 | 73 | 228 | 3.0 | 3.0 | 0.00 | 0.01 | 0.01 | 27 | 1013.9 |
| 20260505221215 | 72 | 180 | 3.0 | 3.0 | 0.00 | 0.01 | 0.01 | 27 | 1014.0 |
| 20260505220712 | 71 | 189 | 5.0 | 7.0 | 0.00 | 0.01 | 0.01 | 26 | 1014.1 |
| 20260505220210 | 72 | 202 | 4.0 | 7.0 | 0.00 | 0.01 | 0.01 | 26 | 1014.0 |
| 20260505215708 | 72 | 223 | 4.0 | 6.0 | 0.00 | 0.01 | 0.01 | 26 | 1014.0 |
| 20260505215206 | 72 | 190 | 6.0 | 9.0 | 0.00 | 0.01 | 0.01 | 27 | 1014.5 |
| 20260505214703 | 72 | 186 | 3.0 | 3.0 | 0.00 | 0.01 | 0.01 | 28 | 1014.3 |
| 20260505214200 | 71 | 186 | 3.0 | 5.0 | 0.00 | 0.01 | 0.01 | 29 | 1014.6 |
| 20260505213658 | 72 | 227 | 4.0 | 6.0 | 0.00 | 0.01 | 0.01 | 29 | 1014.6 |
| 20260505213155 | 72 | 216 | 4.0 | 5.0 | 0.00 | 0.01 | 0.01 | 29 | 1014.6 |
| 20260505212650 | 71 | 182 | 4.0 | 5.0 | 0.00 | 0.01 | 0.01 | 31 | 1014.2 |
| 20260505212148 | 72 | 225 | 4.0 | 5.0 | 0.00 | 0.01 | 0.01 | 30 | 1014.6 |
| 20260505211645 | 72 | 218 | 4.0 | 7.0 | 0.00 | 0.01 | 0.01 | 30 | 1014.7 |
| 20260505211142 | 72 | 211 | 4.0 | 6.0 | 0.00 | 0.01 | 0.01 | 30 | 1014.7 |
| 20260505210639 | 72 | 244 | 4.0 | 5.0 | 0.00 | 0.01 | 0.01 | 31 | 1015.1 |
| 20260505210135 | 73 | 200 | 4.0 | 5.0 | 0.00 | 0.01 | 0.01 | 31 | 1015.0 |
| 20260505205633 | 72 | 195 | 6.0 | 10.0 | 0.00 | 0.01 | 0.01 | 31 | 1015.0 |
| 20260505205131 | 72 | 195 | 4.0 | 7.0 | 0.00 | 0.01 | 0.01 | 31 | 1014.7 |
| 20260505204627 | 71 | 226 | 4.0 | 5.0 | 0.00 | 0.01 | 0.01 | 32 | 1015.0 |
| 20260505204125 | 72 | 174 | 7.0 | 10.0 | 0.00 | 0.01 | 0.01 | 30 | 1015.1 |
| 20260505203621 | 71 | 148 | 4.0 | 6.0 | 0.00 | 0.01 | 0.01 | 32 | 1015.1 |
| 20260505203119 | 71 | 195 | 4.0 | 6.0 | 0.00 | 0.01 | 0.01 | 32 | 1015.0 |
| 20260505202615 | 71 | 207 | 4.0 | 5.0 | 0.00 | 0.01 | 0.01 | 33 | 1015.3 |
| 20260505202111 | 71 | 213 | 4.0 | 5.0 | 0.00 | 0.01 | 0.01 | 35 | 1015.3 |
| 20260505201607 | 70 | 169 | 4.0 | 5.0 | 0.00 | 0.01 | 0.01 | 34 | 1015.3 |
| 20260505201105 | 71 | 191 | 4.0 | 5.0 | 0.00 | 0.01 | 0.01 | 33 | 1015.0 |
| 20260505200603 | 70 | 204 | 4.0 | 5.0 | 0.00 | 0.01 | 0.01 | 34 | 1015.0 |
| 20260505200100 | 70 | 179 | 7.0 | 14.0 | 0.00 | 0.01 | 0.01 | 35 | 1015.4 |
| 20260505195556 | 70 | 176 | 4.0 | 5.0 | 0.00 | 0.01 | 0.01 | 37 | 1015.5 |
| 20260505195054 | 71 | 177 | 4.0 | 5.0 | 0.00 | 0.01 | 0.01 | 34 | 1015.4 |
| 20260505194550 | 70 | 209 | 3.0 | 5.0 | 0.00 | 0.01 | 0.01 | 36 | 1015.7 |
| 20260505194046 | 71 | 152 | 7.0 | 8.0 | 0.00 | 0.01 | 0.01 | 34 | 1015.6 |
| 20260505193543 | 70 | 220 | 2.0 | 2.0 | 0.00 | 0.01 | 0.01 | 35 | 1015.8 |
| 20260505193040 | 70 | 187 | 3.0 | 5.0 | 0.00 | 0.01 | 0.01 | 36 | 1015.8 |
| 20260505192539 | 69 | 213 | 3.0 | 5.0 | 0.00 | 0.01 | 0.01 | 38 | 1016.1 |
| 20260505192036 | 70 | 204 | 3.0 | 5.0 | 0.00 | 0.01 | 0.01 | 36 | 1016.3 |
| 20260505191534 | 70 | 228 | 4.0 | 5.0 | 0.00 | 0.01 | 0.01 | 37 | 1016.2 |
| 20260505191032 | 70 | 231 | 2.0 | 3.0 | 0.00 | 0.01 | 0.01 | 36 | 1016.4 |
| 20260505190526 | 71 | 204 | 3.0 | 5.0 | 0.00 | 0.01 | 0.01 | 36 | 1016.1 |
| 20260505190022 | 70 | 206 | 3.0 | 3.0 | 0.00 | 0.01 | 0.01 | 35 | 1016.4 |
| 20260505185520 | 69 | 136 | 0.0 | 2.0 | 0.00 | 0.01 | 0.01 | 39 | 1016.5 |
| 20260505185016 | 69 | 199 | 4.0 | 5.0 | 0.00 | 0.01 | 0.01 | 36 | 1016.4 |
| 20260505184513 | 69 | 248 | 1.0 | 2.0 | 0.00 | 0.01 | 0.01 | 37 | 1016.5 |
| 20260505184009 | 68 | 209 | 2.0 | 3.0 | 0.00 | 0.01 | 0.01 | 40 | 1016.4 |
| 20260505183506 | 69 | 138 | 1.0 | 2.0 | 0.00 | 0.01 | 0.01 | 39 | 1016.9 |
| 20260505183004 | 68 | 195 | 2.0 | 2.0 | 0.00 | 0.01 | 0.01 | 41 | 1016.7 |
| 20260505182500 | 68 | 183 | 3.0 | 5.0 | 0.00 | 0.01 | 0.01 | 41 | 1016.6 |
| 20260505181956 | 67 | 160 | 1.0 | 2.0 | 0.00 | 0.01 | 0.01 | 43 | 1016.7 |
| 20260505181453 | 68 | 178 | 3.0 | 3.0 | 0.00 | 0.01 | 0.01 | 41 | 1017.0 |
| 20260505180950 | 67 | 167 | 2.0 | 2.0 | 0.00 | 0.01 | 0.01 | 44 | 1016.6 |
| 20260505180446 | 66 | 182 | 4.0 | 5.0 | 0.00 | 0.01 | 0.01 | 43 | 1016.9 |
| 20260505175943 | 66 | 233 | 1.0 | 2.0 | 0.00 | 0.01 | 0.01 | 44 | 1016.9 |
| 20260505175439 | 65 | 243 | 0.0 | 0.0 | 0.00 | 0.01 | 0.01 | 45 | 1017.0 |
| 20260505174936 | 65 | 201 | 1.0 | 2.0 | 0.00 | 0.01 | 0.01 | 50 | 1017.0 |
| 20260505174434 | 65 | 14 | 2.0 | 2.0 | 0.00 | 0.01 | 0.01 | 50 | 1016.7 |
| 20260505173929 | 65 | 9 | 0.0 | 0.0 | 0.00 | 0.01 | 0.01 | 51 | 1017.0 |
| 20260505173426 | 64 | 22 | 0.0 | 0.0 | 0.00 | 0.01 | 0.01 | 51 | 1017.0 |
| 20260505172923 | 64 | 188 | 0.0 | 0.0 | 0.00 | 0.01 | 0.01 | 51 | 1017.0 |
| 20260505172422 | 63 | 53 | 0.0 | 0.0 | 0.00 | 0.01 | 0.01 | 54 | 1016.9 |
| 20260505171920 | 63 | 76 | 3.0 | 3.0 | 0.00 | 0.01 | 0.01 | 53 | 1017.2 |
| 20260505171418 | 61 | 85 | 1.0 | 2.0 | 0.00 | 0.01 | 0.01 | 55 | 1016.7 |
| 20260505170914 | 61 | 59 | 2.0 | 5.0 | 0.00 | 0.01 | 0.01 | 58 | 1017.0 |
| 20260505170411 | 61 | 75 | 3.0 | 3.0 | 0.00 | 0.01 | 0.01 | 58 | 1017.0 |
| 20260505165906 | 60 | 125 | 2.0 | 2.0 | 0.00 | 0.01 | 0.01 | 61 | 1016.7 |
| 20260505165403 | 60 | 86 | 3.0 | 5.0 | 0.00 | 0.01 | 0.01 | 61 | 1016.7 |
| 20260505164858 | 60 | 96 | 1.0 | 2.0 | 0.00 | 0.01 | 0.01 | 64 | 1017.1 |
| 20260505164355 | 59 | 129 | 3.0 | 5.0 | 0.00 | 0.01 | 0.01 | 64 | 1017.2 |
| 20260505163853 | 60 | 118 | 1.0 | 2.0 | 0.00 | 0.01 | 0.01 | 64 | 1017.2 |
| 20260505163352 | 59 | 107 | 2.0 | 2.0 | 0.00 | 0.01 | 0.01 | 63 | 1017.0 |
| 20260505162850 | 59 | 96 | 0.0 | 1.0 | 0.00 | 0.01 | 0.01 | 66 | 1017.0 |
| 20260505162345 | 59 | 63 | 1.0 | 2.0 | 0.05 | 0.01 | 0.01 | 66 | 1017.2 |
| 20260505161843 | 58 | 117 | 1.0 | 2.0 | 0.00 | 0.00 | 0.00 | 69 | 1017.0 |
| 20260505161340 | 58 | 148 | 1.0 | 2.0 | 0.00 | 0.00 | 0.00 | 69 | 1017.0 |
| 20260505160837 | 58 | 107 | 1.0 | 3.0 | 0.00 | 0.00 | 0.00 | 70 | 1017.0 |
| 20260505160335 | 58 | 58 | 0.0 | 0.0 | 0.00 | 0.00 | 0.00 | 70 | 1017.0 |
| 20260505153314 | 57 | 121 | 0.0 | 0.0 | 0.00 | 0.00 | 0.00 | 70 | 1016.9 |
| 20260505152811 | 57 | 80 | 2.0 | 2.0 | 0.00 | 0.00 | 0.00 | 71 | 1016.7 |
| 20260505152308 | 57 | 72 | 1.0 | 1.0 | 0.00 | 0.00 | 0.00 | 71 | 1016.5 |
| 20260505151802 | 56 | 77 | 0.0 | 0.0 | 0.00 | 0.00 | 0.00 | 72 | 1016.7 |
| 20260505151259 | 56 | 130 | 0.0 | 0.0 | 0.00 | 0.00 | 0.00 | 73 | 1016.6 |
| 20260505150756 | 56 | 81 | 0.0 | 0.0 | 0.00 | 0.00 | 0.00 | 74 | 1016.6 |
| 20260505150253 | 55 | 117 | 2.0 | 3.0 | 0.00 | 0.00 | 0.00 | 75 | 1016.5 |
| 20260505140217 | 55 | 119 | 0.0 | 2.0 | 0.00 | 0.00 | 0.00 | 67 | 1016.3 |
| 20260505130141 | 56 | 80 | 1.0 | 1.0 | 0.00 | 0.00 | 0.00 | 62 | 1015.4 |
| 20260505124631 | 55 | 113 | 2.0 | 2.0 | 0.00 | 0.00 | 0.00 | 65 | 1015.6 |
| 20260505124128 | 54 | 110 | 2.0 | 2.0 | 0.00 | 0.00 | 0.00 | 68 | 1015.0 |
| 20260505123623 | 54 | 98 | 0.0 | 0.0 | 0.00 | 0.00 | 0.00 | 76 | 1015.0 |
| 20260505123120 | 55 | 74 | 0.0 | 1.0 | 0.00 | 0.00 | 0.00 | 80 | 1015.0 |
| 20260505122617 | 56 | 68 | 0.0 | 0.0 | 0.00 | 0.00 | 0.00 | 80 | 1015.5 |
| 20260505122115 | 56 | 75 | 0.0 | 0.0 | 0.00 | 0.00 | 0.00 | 80 | 1015.6 |
| 20260505121611 | 56 | 57 | 0.0 | 0.0 | 0.00 | 0.00 | 0.00 | 80 | 1015.6 |
| 20260505121108 | 56 | 57 | 0.0 | 0.0 | 0.00 | 0.00 | 0.00 | 79 | 1015.6 |
| 20260505120604 | 56 | 57 | 0.0 | 0.0 | 0.00 | 0.00 | 0.00 | 78 | 1015.6 |
| 20260505120100 | 56 | 57 | 0.0 | 0.0 | 0.00 | 0.00 | 0.00 | 78 | 1015.5 |
| 20260505115554 | 56 | 60 | 1.0 | 2.0 | 0.00 | 0.00 | 0.00 | 77 | 1015.4 |
| 20260505115051 | 56 | 51 | 1.0 | 2.0 | 0.00 | 0.00 | 0.00 | 75 | 1015.4 |
| 20260505114543 | 56 | 54 | 0.0 | 1.0 | 0.00 | 0.00 | 0.00 | 75 | 1015.6 |
| 20260505114039 | 57 | 50 | 1.0 | 2.0 | 0.00 | 0.00 | 0.00 | 74 | 1015.8 |
| 20260505113536 | 57 | 50 | 0.0 | 0.0 | 0.00 | 0.00 | 0.00 | 73 | 1015.8 |
| 20260505113032 | 57 | 52 | 0.0 | 0.0 | 0.00 | 0.00 | 0.00 | 72 | 1016.4 |
| 20260505112528 | 57 | 52 | 0.0 | 0.0 | 0.00 | 0.00 | 0.00 | 70 | 1016.2 |
| 20260505112026 | 56 | 38 | 0.0 | 0.0 | 0.00 | 0.00 | 0.00 | 68 | 1016.5 |
| 20260505111520 | 57 | 54 | 0.0 | 0.0 | 0.00 | 0.00 | 0.00 | 71 | 1016.1 |
| 20260505111017 | 57 | 54 | 0.0 | 0.0 | 0.00 | 0.00 | 0.00 | 67 | 1016.4 |
| 20260505110514 | 57 | 20 | 0.0 | 0.0 | 0.00 | 0.00 | 0.00 | 56 | 1016.3 |
| 20260505101945 | 58 | 288 | 0.0 | 0.0 | 0.00 | 0.00 | 0.00 | 65 | 1016.9 |
| 20260505101438 | 59 | 284 | 0.0 | 1.0 | 0.00 | 0.00 | 0.00 | 65 | 1016.7 |
| 20260505100934 | 59 | 307 | 0.0 | 1.0 | 0.00 | 0.00 | 0.00 | 65 | 1017.1 |
| 20260505100431 | 59 | 312 | 2.0 | 2.0 | 0.00 | 0.00 | 0.00 | 64 | 1017.3 |
| 20260505095927 | 59 | 356 | 1.0 | 2.0 | 0.00 | 0.00 | 0.00 | 61 | 1017.2 |
| 20260505095424 | 60 | 276 | 0.0 | 0.0 | 0.00 | 0.00 | 0.00 | 59 | 1017.2 |
| 20260505094920 | 60 | 276 | 2.0 | 2.0 | 0.00 | 0.00 | 0.00 | 44 | 1017.2 |
| 20260505094418 | 60 | 279 | 0.0 | 2.0 | 0.00 | 0.00 | 0.00 | 53 | 1017.0 |
| 20260505093914 | 60 | 301 | 1.0 | 2.0 | 0.00 | 0.00 | 0.00 | 54 | 1017.3 |
| 20260505093411 | 60 | 340 | 0.0 | 0.0 | 0.00 | 0.00 | 0.00 | 52 | 1017.4 |
| 20260505092908 | 60 | 308 | 0.0 | 0.0 | 0.00 | 0.00 | 0.00 | 50 | 1017.3 |
| 20260505092406 | 60 | 296 | 0.0 | 0.0 | 0.00 | 0.00 | 0.00 | 50 | 1017.5 |
| 20260505091903 | 60 | 272 | 0.0 | 1.0 | 0.00 | 0.00 | 0.00 | 50 | 1017.4 |
| 20260505091401 | 60 | 309 | 2.0 | 3.0 | 0.00 | 0.00 | 0.00 | 49 | 1018.0 |
| 20260505090858 | 61 | 308 | 2.0 | 3.0 | 0.00 | 0.00 | 0.00 | 49 | 1017.6 |
| 20260505090356 | 61 | 264 | 0.0 | 2.0 | 0.00 | 0.00 | 0.00 | 48 | 1017.8 |
| 20260505085853 | 61 | 289 | 1.0 | 1.0 | 0.00 | 0.00 | 0.00 | 47 | 1017.6 |
| 20260505085351 | 61 | 270 | 2.0 | 2.0 | 0.00 | 0.00 | 0.00 | 48 | 1018.0 |
| 20260505084849 | 61 | 294 | 1.0 | 2.0 | 0.00 | 0.00 | 0.00 | 47 | 1017.8 |
| 20260505084347 | 61 | 275 | 1.0 | 2.0 | 0.00 | 0.00 | 0.00 | 47 | 1018.0 |
| 20260505083844 | 61 | 282 | 1.0 | 2.0 | 0.00 | 0.00 | 0.00 | 45 | 1017.9 |
| 20260505083342 | 61 | 313 | 2.0 | 2.0 | 0.00 | 0.00 | 0.00 | 45 | 1017.9 |
| 20260505082838 | 61 | 277 | 0.0 | 0.0 | 0.00 | 0.00 | 0.00 | 44 | 1018.1 |
| 20260505082334 | 61 | 294 | 0.0 | 1.0 | 0.00 | 0.00 | 0.00 | 43 | 1018.2 |
| 20260505081831 | 62 | 283 | 0.0 | 0.0 | 0.00 | 0.00 | 0.00 | 42 | 1018.3 |
| 20260505081327 | 62 | 317 | 1.0 | 2.0 | 0.00 | 0.00 | 0.00 | 40 | 1018.1 |
| 20260505080825 | 62 | 236 | 0.0 | 1.0 | 0.00 | 0.00 | 0.00 | 39 | 1018.2 |
| 20260505080320 | 62 | 327 | 0.0 | 1.0 | 0.00 | 0.00 | 0.00 | 38 | 1018.0 |
| 20260505075816 | 62 | 295 | 0.0 | 1.0 | 0.00 | 0.00 | 0.00 | 38 | 1017.9 |
| 20260505075313 | 62 | 266 | 1.0 | 1.0 | 0.00 | 0.00 | 0.00 | 37 | 1018.0 |
| 20260505074810 | 62 | 331 | 1.0 | 2.0 | 0.00 | 0.00 | 0.00 | 36 | 1018.1 |
| 20260505074307 | 62 | 318 | 2.0 | 3.0 | 0.00 | 0.00 | 0.00 | 35 | 1018.4 |
| 20260505073805 | 63 | 306 | 0.0 | 0.0 | 0.00 | 0.00 | 0.00 | 34 | 1018.6 |
| 20260505073303 | 62 | 283 | 0.0 | 1.0 | 0.00 | 0.00 | 0.00 | 34 | 1018.8 |
| 20260505072759 | 63 | 287 | 0.0 | 0.0 | 0.00 | 0.00 | 0.00 | 34 | 1018.6 |
| 20260505072255 | 63 | 307 | 0.0 | 0.0 | 0.00 | 0.00 | 0.00 | 33 | 1018.4 |
| 20260505071751 | 63 | 255 | 0.0 | 0.0 | 0.00 | 0.00 | 0.00 | 33 | 1018.4 |
| 20260505071248 | 64 | 268 | 0.0 | 0.0 | 0.00 | 0.00 | 0.00 | 31 | 1018.4 |
| 20260505070746 | 64 | 245 | 2.0 | 3.0 | 0.00 | 0.00 | 0.00 | 29 | 1018.9 |
| 20260505070242 | 64 | 283 | 1.0 | 1.0 | 0.00 | 0.00 | 0.00 | 29 | 1018.3 |
| 20260505065737 | 64 | 225 | 3.0 | 3.0 | 0.00 | 0.00 | 0.00 | 30 | 1018.4 |
| 20260505065235 | 64 | 219 | 0.0 | 1.0 | 0.00 | 0.00 | 0.00 | 31 | 1018.7 |
| 20260505064731 | 64 | 266 | 1.0 | 2.0 | 0.00 | 0.00 | 0.00 | 33 | 1018.3 |
| 20260505064229 | 64 | 235 | 2.0 | 2.0 | 0.00 | 0.00 | 0.00 | 33 | 1018.7 |
| 20260505063727 | 64 | 217 | 1.0 | 2.0 | 0.00 | 0.00 | 0.00 | 33 | 1018.1 |
| 20260505063223 | 64 | 253 | 2.0 | 2.0 | 0.00 | 0.00 | 0.00 | 33 | 1018.3 |
| 20260505062719 | 64 | 237 | 2.0 | 2.0 | 0.00 | 0.00 | 0.00 | 32 | 1018.1 |
| 20260505062217 | 64 | 239 | 2.0 | 2.0 | 0.00 | 0.00 | 0.00 | 32 | 1018.7 |
| 20260505061714 | 64 | 233 | 2.0 | 3.0 | 0.00 | 0.00 | 0.00 | 31 | 1018.6 |
| 20260505061212 | 64 | 239 | 1.0 | 2.0 | 0.00 | 0.00 | 0.00 | 31 | 1018.7 |
| 20260505060709 | 64 | 242 | 1.0 | 2.0 | 0.00 | 0.00 | 0.00 | 30 | 1018.6 |
| 20260505060206 | 64 | 251 | 1.0 | 2.0 | 0.00 | 0.00 | 0.00 | 30 | 1018.8 |
| 20260505055701 | 64 | 265 | 0.0 | 0.0 | 0.00 | 0.00 | 0.00 | 31 | 1018.6 |
| 20260505055157 | 65 | 224 | 2.0 | 3.0 | 0.00 | 0.00 | 0.00 | 30 | 1018.4 |
| 20260505054655 | 65 | 254 | 2.0 | 3.0 | 0.00 | 0.00 | 0.00 | 31 | 1018.4 |
| 20260505054153 | 64 | 233 | 2.0 | 2.0 | 0.00 | 0.00 | 0.00 | 30 | 1018.2 |
| 20260505053650 | 64 | 237 | 1.0 | 2.0 | 0.00 | 0.00 | 0.00 | 32 | 1018.3 |
| 20260505053147 | 64 | 231 | 1.0 | 2.0 | 0.00 | 0.00 | 0.00 | 32 | 1018.6 |
| 20260505052644 | 64 | 254 | 2.0 | 2.0 | 0.00 | 0.00 | 0.00 | 32 | 1018.4 |
| 20260505052141 | 63 | 204 | 1.0 | 2.0 | 0.00 | 0.00 | 0.00 | 33 | 1018.4 |
| 20260505051637 | 63 | 271 | 0.0 | 1.0 | 0.00 | 0.00 | 0.00 | 34 | 1018.4 |
| 20260505051136 | 62 | 260 | 1.0 | 3.0 | 0.00 | 0.00 | 0.00 | 35 | 1018.8 |
| 20260505050633 | 62 | 255 | 1.0 | 2.0 | 0.00 | 0.00 | 0.00 | 35 | 1018.3 |
| 20260505050132 | 62 | 265 | 1.0 | 3.0 | 0.00 | 0.00 | 0.00 | 35 | 1018.8 |
| 20260505041601 | 62 | 275 | 0.0 | 0.0 | 0.00 | 0.00 | 0.00 | 38 | 1018.6 |
| 20260505041059 | 62 | 289 | 0.0 | 0.0 | 0.00 | 0.00 | 0.00 | 38 | 1018.4 |
| 20260505040556 | 63 | 267 | 0.0 | 0.0 | 0.00 | 0.00 | 0.00 | 38 | 1018.2 |
| 20260505040053 | 63 | 288 | 1.0 | 2.0 | 0.00 | 0.00 | 0.00 | 38 | 1018.0 |
| 20260505035549 | 63 | 315 | 0.0 | 1.0 | 0.00 | 0.00 | 0.00 | 38 | 1017.9 |
| 20260505035046 | 63 | 269 | 3.0 | 5.0 | 0.00 | 0.00 | 0.00 | 38 | 1018.6 |
| 20260505034542 | 63 | 261 | 1.0 | 2.0 | 0.00 | 0.00 | 0.00 | 38 | 1018.3 |
| 20260505034039 | 63 | 286 | 2.0 | 2.0 | 0.00 | 0.00 | 0.00 | 38 | 1018.2 |
| 20260505033536 | 64 | 266 | 1.0 | 2.0 | 0.00 | 0.00 | 0.00 | 37 | 1018.7 |
| 20260505033034 | 64 | 298 | 2.0 | 3.0 | 0.00 | 0.00 | 0.00 | 37 | 1018.6 |
| 20260505032532 | 64 | 256 | 2.0 | 3.0 | 0.00 | 0.00 | 0.00 | 37 | 1018.3 |
| 20260505032028 | 64 | 267 | 1.0 | 2.0 | 0.00 | 0.00 | 0.00 | 37 | 1017.9 |
| 20260505031525 | 64 | 276 | 1.0 | 2.0 | 0.00 | 0.00 | 0.00 | 36 | 1017.9 |
| 20260505031021 | 64 | 275 | 2.0 | 3.0 | 0.00 | 0.00 | 0.00 | 36 | 1017.6 |
| 20260505030519 | 64 | 259 | 1.0 | 3.0 | 0.00 | 0.00 | 0.00 | 36 | 1017.6 |
| 20260505030015 | 64 | 274 | 1.0 | 2.0 | 0.00 | 0.00 | 0.00 | 36 | 1017.5 |
| 20260505025511 | 65 | 289 | 1.0 | 3.0 | 0.00 | 0.00 | 0.00 | 36 | 1017.4 |
| 20260505025010 | 65 | 302 | 2.0 | 3.0 | 0.00 | 0.00 | 0.00 | 35 | 1017.9 |
| 20260505024506 | 65 | 293 | 1.0 | 2.0 | 0.00 | 0.00 | 0.00 | 35 | 1017.3 |
| 20260505024003 | 65 | 311 | 2.0 | 3.0 | 0.00 | 0.00 | 0.00 | 34 | 1017.3 |
| 20260505023500 | 65 | 301 | 1.0 | 2.0 | 0.00 | 0.00 | 0.00 | 34 | 1017.3 |
| 20260505022958 | 66 | 291 | 1.0 | 2.0 | 0.00 | 0.00 | 0.00 | 33 | 1017.3 |
| 20260505022455 | 66 | 341 | 1.0 | 2.0 | 0.00 | 0.00 | 0.00 | 33 | 1017.3 |
| 20260505021952 | 66 | 276 | 2.0 | 2.0 | 0.00 | 0.00 | 0.00 | 33 | 1016.9 |
| 20260505021448 | 67 | 331 | 2.0 | 2.0 | 0.00 | 0.00 | 0.00 | 32 | 1016.9 |
| 20260505020944 | 68 | 298 | 2.0 | 2.0 | 0.00 | 0.00 | 0.00 | 30 | 1017.0 |
| 20260505020440 | 68 | 355 | 3.0 | 3.0 | 0.00 | 0.00 | 0.00 | 28 | 1016.7 |
| 20260505015937 | 71 | 289 | 2.0 | 3.0 | 0.00 | 0.00 | 0.00 | 25 | 1016.9 |
| 20260505015434 | 72 | 264 | 1.0 | 2.0 | 0.00 | 0.00 | 0.00 | 21 | 1016.5 |
| 20260505014931 | 72 | 265 | 0.0 | 0.0 | 0.00 | 0.00 | 0.00 | 22 | 1016.6 |
| 20260505014428 | 72 | 251 | 0.0 | 0.0 | 0.00 | 0.00 | 0.00 | 22 | 1016.9 |